Temp_Advection
nan nan nan nan nan nan nan nan nan nan nan nan nan nan nan nan nan nan nan nan nan nan nan nan nan nan nan nan nan nan nan nan nan nan nan nan nan nan nan nan nan nan nan nan nan nan nan nan nan nan nan nan nan nan nan nan nan nan nan nan nan nan nan
nan 0 0 -0 -0 -0 -0 -0 -0 -0 0 0 -0 -1 -1 -1 -1 -0 -0 0 0 1 0 -0 -1 -1 -0 -0 -0 -0 -0 -0 0 0 0 0 0 0 0 0 0 0 -1 -2 -1 -0 -1 -1 0 1 -0 -1 -1 -2 -2 -2 -2 -3 -3 -2 -2 -3 nan
nan 0 0 0 0 -0 -0 -0 -0 -0 0 0 -0 -1 -1 -1 -1 -1 -0 -0 0 0 0 -0 -0 -1 -1 -1 -0 -0 -0 -0 -0 0 0 0 0 0 -0 0 0 0 -0 -1 -1 -1 -1 -0 -0 0 0 -0 -0 -1 -2 -2 -1 -2 -3 -2 -2 -3 nan
nan 0 0 0 0 0 -0 0 0 0 0 0 -0 -0 -0 -0 -0 -0 -0 -0 -0 0 0 -0 -0 -1 -1 -1 -1 -1 -1 -0 -0 -0 -0 -0 0 -0 -0 -0 0 0 0 -0 -1 -1 -0 0 0 0 0 -0 -1 -0 -1 -1 -1 -1 -2 -2 -2 -2 nan
nan 0 0 0 0 0 0 0 0 0 0 0 0 -0 -0 0 1 0 0 0 0 0 0 0 -0 -0 -0 -0 -0 -0 -1 -1 -0 -0 -0 -0 -0 -0 -0 -0 -0 -0 0 0 -0 -1 -1 0 0 0 -0 -0 -0 -0 -0 -1 -1 -1 -1 -2 -2 -2 nan
nan 0 1 1 0 0 0 0 0 0 1 0 -0 -0 -0 0 1 0 0 0 0 0 0 0 0 0 -0 -0 -0 -1 -1 -1 -1 -0 -0 -0 -0 -0 -0 -0 -0 -0 0 0 -0 -0 -1 -0 -0 -0 -0 -0 -0 -0 -1 -1 -1 -1 -0 -1 -2 -2 nan
nan 0 0 1 0 0 -0 0 0 1 1 0 -0 -0 -0 0 1 0 0 0 0 0 -0 -0 0 0 0 -0 -0 -0 -1 -1 -1 -1 -0 -0 -0 -0 -0 -0 -0 -0 0 -0 -0 -0 -0 -0 -1 -1 -0 -0 -0 -0 -0 -0 -1 -2 -1 -1 -2 -3 nan
nan 0 0 0 0 0 0 0 1 0 0 -0 -0 -0 0 1 1 0 -0 0 0 0 -0 -0 -0 -0 0 0 -0 -1 -1 -1 -1 -1 -1 -1 -0 -0 -0 -0 -0 -0 -0 -0 0 0 -0 -0 -1 -1 -0 -0 -0 -0 -0 -0 -0 -1 -2 -1 -2 -2 nan
nan 0 1 0 0 0 0 0 0 0 0 -0 -1 0 1 1 0 -0 -1 -0 0 0 0 -0 -0 -1 -0 0 -0 -1 -1 -0 0 -0 -0 -0 -0 -0 -0 -0 -0 -0 -0 -0 0 0 0 -0 -0 -1 -0 -0 -0 -0 -0 -0 -0 -1 -1 -1 -2 -1 nan
nan 1 1 0 0 0 0 -0 -0 0 0 -0 0 1 1 1 0 -0 -0 -0 -0 -0 -0 -0 0 -0 -0 -0 -0 -0 -1 -0 0 0 -0 -0 -0 -0 -0 -0 -0 -0 -0 -0 0 0 0 0 -0 -0 -0 -0 -0 -0 -0 -0 -0 -1 -1 -1 -2 -2 nan
nan 1 0 0 0 0 -0 -0 -0 0 0 0 1 2 1 0 0 0 0 0 -0 -1 -0 -0 0 -0 -0 -0 -0 -0 -0 -0 0 -0 -0 -0 -0 -1 -0 -0 -0 -0 0 0 0 0 0 0 -0 -0 -0 -0 -0 -0 -0 -0 -0 -0 -1 -1 -2 -3 nan
nan 0 1 0 0 -0 -0 -0 -0 0 0 1 1 2 1 0 0 0 0 0 -0 -0 -0 0 0 -0 -0 -0 -0 -0 -0 -0 -0 -0 -0 -0 -0 -0 -0 -0 -0 0 0 0 0 0 0 -0 -0 0 0 -0 -0 -0 -0 -0 -0 -0 -1 -0 -0 -2 nan
nan 1 0 0 -0 -0 -0 -0 0 1 0 0 1 1 1 0 0 0 0 0 0 0 0 0 0 -0 -0 0 0 0 -0 -0 -0 -0 -1 -1 -0 -0 -0 -0 -0 0 0 1 0 -0 -0 0 0 0 -0 -0 -0 -0 -0 -0 -1 -0 -0 -0 0 -1 nan
nan 0 0 -0 -0 -1 -0 -0 1 1 0 0 1 1 0 0 0 -0 0 0 -0 -0 0 0 0 0 -0 -0 1 1 0 -0 -0 -0 -0 -0 -0 -0 -0 -0 -0 -0 0 1 0 0 0 0 0 -0 -0 -0 0 -0 -0 -0 -1 -0 -0 -0 -0 -1 nan
nan 0 -0 -0 -0 -0 -0 0 1 1 0 1 1 1 -0 -0 0 0 0 -1 -1 -0 0 0 0 0 -0 -0 0 0 0 -0 -0 -0 -0 -0 -0 -0 -0 -0 -0 -0 -0 0 0 0 0 0 -0 0 -0 -0 0 -0 -0 -0 -0 -0 -0 -1 -1 -1 nan
nan -0 -0 -0 -0 -0 -0 0 1 1 0 0 1 1 0 -0 0 -0 -1 -1 -1 0 0 0 0 0 0 0 0 0 0 -0 -0 -0 -0 -0 -0 -0 -0 -0 0 0 -0 0 0 0 0 -0 -0 0 0 0 0 -0 -0 0 -0 -0 -0 -1 -2 -2 nan
nan -0 -0 -0 0 0 -0 -0 0 1 0 0 1 1 1 -0 0 -0 -2 -1 -0 0 -0 -0 0 0 0 0 -0 -0 -0 -0 0 0 0 -0 -0 -0 -0 -0 0 0 -0 0 0 0 0 0 -0 0 0 0 0 -0 0 0 -0 -0 -0 -1 -1 -2 nan
nan -0 0 0 0 0 -0 -1 -0 0 0 0 1 1 1 -0 -0 -0 -1 -1 -0 -0 -0 -0 -0 0 0 -0 -0 -0 -0 -0 0 0 0 0 0 -0 -1 -0 0 0 0 0 0 0 0 0 0 0 0 0 0 0 0 0 -0 -0 -0 -1 -1 -1 nan
nan -0 1 1 1 0 -0 -1 -0 0 0 0 1 1 1 -0 -0 -0 -0 -0 -0 -0 -0 -0 -0 0 0 0 -0 -0 -0 -0 -0 0 0 -0 -0 -0 -0 -0 0 0 0 0 0 0 0 0 1 1 0 0 0 0 0 0 -0 -0 -0 -1 -1 -0 nan
nan 0 1 1 1 0 -0 -0 -1 0 0 0 0 1 1 0 -0 -0 -0 -0 -0 -0 -0 -0 -0 0 0 0 0 0 -0 -0 -0 -0 0 -0 -0 -0 -0 0 0 0 0 0 0 0 0 0 0 1 0 0 0 0 -0 -0 -0 -0 -0 -0 -0 0 nan
nan 0 0 1 0 0 0 -0 -0 -0 0 0 0 1 1 0 -0 -0 -0 -1 -0 -0 -0 -0 -0 -0 0 0 0 -0 -0 -0 -0 -0 -0 0 -0 -0 -0 0 -0 0 -0 0 0 0 0 0 0 0 1 0 0 0 -0 -0 -0 -0 0 -0 -0 -0 nan
nan 0 0 0 0 0 0 0 0 -0 0 0 0 0 1 1 -0 -0 -0 -0 -0 -0 -0 0 0 0 -0 -0 -0 -0 -0 -0 0 0 -0 -0 -0 -0 -0 0 0 -0 -0 0 0 0 0 0 0 0 0 0 -0 -0 -0 -0 -0 0 0 -0 -0 -0 nan
nan 0 -0 0 0 0 0 0 0 0 0 0 -0 0 1 0 -0 -1 -0 -0 0 0 0 -0 0 0 0 -0 -0 -0 -0 -0 0 0 -0 -0 -0 -0 -0 -0 -0 -0 -0 -0 0 -0 0 0 0 0 -0 -0 -0 -0 -0 0 0 0 -0 -0 -0 -0 nan
nan 1 0 -0 -0 0 0 0 0 0 0 0 -0 -0 0 0 -0 -1 0 0 0 0 0 -0 0 0 0 0 0 0 -0 -0 -0 -0 -0 -0 0 1 1 0 -0 -0 -0 -0 -0 -0 -0 -0 0 -0 -0 -0 -0 -0 0 0 0 -0 -0 -0 -0 -0 nan
nan 1 0 -0 -1 -0 0 1 0 0 0 0 0 -0 0 0 0 -0 0 0 0 0 0 -0 -0 0 0 0 0 -0 -0 0 -0 -0 -0 -0 0 1 1 0 0 -0 -0 -0 -0 -0 -0 -0 -0 -0 -0 -0 -0 -0 0 0 0 0 -0 -0 -0 -0 nan
nan 1 0 -0 -1 -1 -0 0 0 0 0 0 0 0 0 0 0 0 0 0 0 0 -0 -0 -0 -0 -0 -0 -0 0 0 0 -0 -0 -0 -0 0 1 1 1 0 0 -0 -0 -0 -0 -0 -0 -0 -0 -0 -0 0 0 0 0 0 0 0 -0 -0 0 nan
nan 1 -0 -1 -0 -0 -0 -0 0 0 0 1 1 0 0 0 0 0 0 0 -0 -0 -0 -0 -0 -0 -0 -0 0 0 0 -0 -0 -0 -0 -0 0 0 0 0 0 0 0 -0 -0 -0 -0 -0 -0 -0 0 0 0 0 0 -0 -0 0 0 -0 -0 0 nan
nan 1 0 -0 -0 -0 -1 -1 0 0 0 0 1 0 0 0 0 0 -0 -0 0 0 -0 -0 -0 -0 0 0 0 0 0 -0 -0 -0 -0 -0 0 0 0 0 0 0 0 -0 -0 -0 -0 -0 0 0 0 0 0 0 0 -0 -0 -0 0 0 -0 -0 nan
nan 0 1 0 -0 -0 -1 -1 -0 0 0 0 0 0 0 0 0 -0 -0 -0 0 0 -0 -0 0 -0 0 0 0 0 0 0 -0 -0 -0 0 0 -0 -0 -0 0 0 -0 -0 -0 -0 0 0 0 0 0 0 0 0 0 0 -0 -0 0 -0 -0 -0 nan
nan 1 1 -0 -0 0 -0 -1 -0 0 0 -0 -0 0 0 0 -0 -0 -0 0 0 0 -0 0 -0 -0 0 0 0 0 0 0 -0 -0 -0 -0 0 0 -0 -0 -0 -0 -0 -0 0 0 0 0 0 0 0 0 0 0 0 0 0 0 0 -0 -0 -0 nan
nan 1 1 0 -0 0 0 -1 -1 -0 0 0 0 0 -0 -0 -0 -0 -0 0 0 0 0 0 -0 0 0 0 0 0 0 0 0 -0 -0 -0 -0 0 0 -0 -0 -0 -0 0 0 0 0 0 0 0 0 -0 0 0 -0 -0 -0 0 0 -0 -0 -0 nan
nan 0 0 1 0 0 -0 -1 -1 -0 -0 0 0 -0 -0 -1 -1 -0 -0 0 0 0 0 0 0 0 0 0 0 0 0 -0 0 0 -0 -0 -0 0 -0 -0 -0 -0 -0 0 0 0 0 0 0 0 -0 -0 -0 0 0 -0 -0 -0 0 -0 -0 -0 nan
nan 0 0 0 0 0 -0 -0 0 0 0 -0 -1 -1 -0 -0 -0 -0 0 0 1 0 0 0 0 0 0 0 0 0 0 -0 0 0 -0 -0 0 0 -0 -0 -0 0 0 0 0 0 0 0 0 -0 -0 -0 -0 0 0 0 -0 0 0 -0 -0 -0 nan
nan 0 0 0 0 0 -0 -0 -0 0 0 -0 -1 -0 -0 0 -0 0 0 0 1 0 0 0 0 0 1 1 0 0 -0 -0 -0 -0 -0 -0 0 0 -0 -0 -0 0 0 0 0 0 0 0 0 -0 -0 -0 -0 0 0 0 -0 -0 -0 -0 -0 -0 nan
nan 1 1 0 -0 -0 -0 -0 -0 0 0 0 -0 -0 0 0 0 0 0 0 0 0 0 0 0 0 1 1 0 -0 -0 -0 0 -0 -0 -0 0 0 -0 -0 0 0 0 0 0 0 0 0 0 -0 -0 0 0 0 0 -0 -0 -0 -0 -0 -0 -0 nan
nan nan nan nan nan nan nan nan nan nan nan nan nan nan nan nan nan nan nan nan nan nan nan nan nan nan nan nan nan nan nan nan nan nan nan nan nan nan nan nan nan nan nan nan nan nan nan nan nan nan nan nan nan nan nan nan nan nan nan nan nan nan nan
Wind_Speed
27 27 28 27 27 27 27 27 27 26 26 25 25 26 26 25 23 24 25 26 27 27 26 24 22 21 20 21 23 24 26 28 28 29 30 30 31 30 29 29 29 32 39 42 40 39 39 38 35 30 29 32 34 36 38 39 39 38 37 36 36 37 37
27 27 28 28 29 29 29 29 29 28 27 27 28 29 28 26 24 24 24 24 26 27 27 26 24 23 22 22 22 23 24 26 27 28 29 29 30 30 30 30 32 33 37 42 43 41 39 39 36 31 28 30 33 36 38 39 39 38 37 35 34 35 37
27 28 29 29 30 30 30 30 30 30 29 29 30 31 30 28 26 25 25 24 25 25 26 27 26 25 25 24 24 24 24 25 26 26 28 28 28 30 31 31 31 32 35 40 43 41 39 37 31 26 27 30 34 35 37 38 38 38 36 34 32 34 36
27 29 29 30 31 31 31 32 31 31 30 30 31 32 32 30 28 27 27 27 27 26 26 27 27 27 27 27 27 27 27 27 28 29 30 31 31 31 32 32 32 33 34 37 40 40 38 32 25 25 29 32 34 34 33 34 35 35 35 33 31 32 34
29 30 31 31 32 32 32 33 32 32 31 31 33 34 34 31 30 29 29 29 29 28 28 28 29 28 28 30 31 31 31 31 32 32 32 33 34 34 34 34 34 34 34 34 37 38 35 30 26 27 29 30 30 31 32 33 34 34 34 34 32 31 32
31 32 32 32 32 33 33 33 32 32 32 33 35 36 35 32 31 30 30 30 30 30 30 30 30 30 30 31 33 34 34 35 35 35 35 35 36 36 36 36 36 35 33 32 31 31 30 28 27 27 27 28 29 32 34 35 36 35 33 34 35 33 31
31 32 32 33 33 33 33 33 32 33 34 35 36 35 34 32 31 30 28 28 28 28 28 28 29 30 31 32 33 34 36 36 37 38 38 38 38 37 37 36 35 33 29 26 25 25 26 27 27 27 28 30 31 33 33 33 35 37 35 34 35 34 32
31 32 32 33 32 32 31 32 33 34 36 36 35 33 31 29 28 27 26 26 25 25 24 24 24 26 28 29 30 32 34 35 35 35 35 35 33 31 30 29 28 24 21 21 22 23 25 25 26 28 29 31 31 32 32 31 32 36 37 37 36 35 34
32 32 32 31 30 30 31 33 34 36 36 35 32 29 27 26 25 25 25 24 23 23 24 24 25 27 27 27 27 29 30 30 29 28 27 27 25 23 23 24 23 21 21 21 22 24 26 26 27 28 29 30 30 30 31 31 31 33 35 37 37 36 33
31 31 31 30 31 32 33 34 35 35 34 32 28 25 23 23 24 25 25 25 25 26 26 27 27 27 26 25 25 25 25 22 21 21 21 22 22 23 25 26 25 25 25 25 25 27 27 27 27 28 28 29 29 29 30 30 31 33 34 35 38 37 33
31 31 30 31 32 34 34 34 33 32 30 27 23 20 20 22 24 25 25 26 27 26 26 26 25 24 24 23 23 22 20 16 15 17 18 20 21 22 25 27 27 26 25 25 26 26 25 25 28 29 28 29 29 29 30 30 30 31 32 33 35 36 34
30 30 30 31 33 34 34 32 30 29 26 24 20 18 19 22 23 24 25 25 25 25 25 25 25 25 25 25 24 23 20 18 18 18 19 21 21 21 21 21 22 23 23 24 25 26 27 27 29 30 28 28 29 29 29 30 29 29 30 30 30 31 33
29 30 31 33 34 33 31 29 27 25 23 21 19 18 19 21 22 23 24 25 25 26 27 28 28 28 28 27 26 24 22 22 23 23 24 24 25 25 24 22 22 23 24 25 27 29 30 30 30 30 29 27 27 28 28 29 29 28 27 26 27 30 31
30 31 33 34 33 31 29 26 24 23 21 19 18 18 19 20 21 23 25 26 28 29 30 28 27 25 24 24 24 23 23 24 24 24 24 25 27 28 29 29 28 28 29 29 30 30 29 27 27 27 27 25 25 27 27 27 27 25 25 26 29 31 32
32 33 34 32 30 29 27 24 22 21 20 19 18 19 19 20 22 25 28 30 30 29 25 22 20 20 19 19 19 18 17 19 20 21 23 25 26 26 27 28 28 27 26 26 26 25 24 24 24 24 24 23 23 23 24 24 25 25 27 31 33 34 33
34 34 32 30 28 27 26 24 21 21 20 19 19 18 19 21 24 26 28 28 26 22 19 17 17 18 18 18 17 17 16 17 19 21 22 22 21 21 20 21 20 19 20 20 19 20 20 20 20 19 18 17 19 22 23 24 27 28 30 32 35 37 36
33 32 30 28 26 25 25 24 21 20 20 19 18 18 19 21 23 25 26 25 20 17 16 17 17 17 18 17 16 15 15 16 16 17 18 19 19 18 17 17 17 16 17 18 18 19 20 20 20 21 19 18 21 25 26 27 30 30 31 33 36 39 39
32 29 27 25 24 23 24 24 21 20 19 18 18 18 18 21 23 24 24 21 17 16 17 17 17 16 16 15 14 13 13 12 13 15 17 20 21 22 22 20 18 18 19 19 21 22 23 24 25 25 24 24 26 28 29 29 31 31 32 34 37 39 41
29 28 25 23 23 22 23 23 22 21 20 18 17 17 18 20 21 22 22 19 17 17 18 18 18 16 15 14 14 13 12 10 12 16 19 20 21 23 24 22 21 21 21 22 23 24 25 25 26 26 27 27 28 29 29 30 31 32 34 36 37 37 38
27 26 24 22 22 22 22 22 22 21 20 18 16 16 16 18 19 21 22 20 17 18 18 19 18 15 15 17 16 15 14 11 13 18 20 18 16 17 19 19 20 21 22 22 22 23 23 24 25 26 26 27 27 28 29 30 32 34 35 36 36 34 33
26 25 24 22 21 21 20 21 21 21 19 18 16 15 15 16 18 20 20 18 17 18 19 19 17 14 15 17 18 18 16 12 14 19 20 17 15 16 16 17 19 20 21 21 21 21 22 22 23 24 25 26 27 28 30 32 34 36 34 33 32 30 29
25 24 24 22 21 20 19 19 20 20 19 17 16 16 15 16 17 17 18 18 18 18 18 18 16 15 16 17 17 17 15 14 17 20 20 19 20 21 22 22 23 23 22 21 21 21 22 22 23 24 25 26 28 30 33 34 34 33 30 28 27 26 26
24 24 23 22 21 20 19 18 18 18 18 17 16 16 16 15 15 17 18 19 18 17 16 16 15 14 15 15 16 16 16 19 21 21 23 25 26 27 27 27 26 24 23 22 22 22 23 23 24 25 26 28 31 33 33 32 30 27 25 24 23 23 23
23 23 22 22 21 20 18 16 16 16 17 17 16 16 15 13 14 17 18 16 16 15 15 15 15 13 14 15 16 18 21 24 25 25 27 29 28 27 26 25 24 23 23 23 23 24 24 25 25 27 29 31 32 31 29 27 25 23 22 21 20 20 20
22 22 21 22 22 20 17 16 16 16 16 16 15 15 14 11 11 17 17 14 14 15 15 15 16 16 17 19 21 23 25 25 25 24 24 24 24 24 24 24 24 25 25 25 25 26 26 27 28 30 31 30 29 26 24 22 21 20 19 18 18 18 18
22 21 21 21 21 20 18 17 16 16 16 16 15 15 14 12 12 15 18 16 16 17 18 18 20 21 23 24 24 23 22 20 20 20 20 21 21 22 22 23 25 26 27 28 28 28 29 29 30 29 28 25 23 21 20 19 18 17 16 17 17 17 16
21 20 20 20 19 19 18 18 17 16 16 15 14 14 14 14 15 17 19 19 19 19 20 21 22 23 22 21 19 17 16 16 18 19 19 19 19 19 20 21 23 25 26 27 27 28 27 26 25 23 21 20 18 18 17 17 16 15 14 15 15 15 15
20 19 19 19 19 19 19 19 17 15 14 15 15 15 15 15 16 17 18 18 17 16 17 18 19 18 16 15 15 15 16 17 18 18 19 18 18 18 18 18 19 20 21 22 22 22 21 20 19 18 17 16 16 15 15 14 13 13 12 13 13 13 12
19 19 18 18 19 19 19 19 16 13 12 14 15 15 14 14 13 13 14 13 12 12 13 14 15 15 15 16 16 17 17 18 18 18 18 17 16 16 16 16 16 16 16 16 16 16 15 15 14 14 14 14 14 13 13 12 12 12 11 12 12 11 11
18 17 17 19 19 19 19 19 17 14 12 14 15 15 13 13 13 13 12 11 11 13 15 15 16 17 18 18 19 19 18 18 19 19 18 16 15 15 15 14 13 13 13 13 13 12 12 11 11 12 12 12 12 12 11 11 11 11 11 11 11 11 10
17 17 18 20 20 20 20 21 21 18 14 13 15 16 15 16 17 17 16 15 16 17 19 19 20 20 20 20 21 20 19 19 19 19 18 16 14 13 12 12 12 12 11 11 11 10 10 10 10 10 11 11 11 10 10 10 10 10 10 10 10 10 10
17 18 20 21 20 20 21 23 23 20 15 12 15 17 18 19 20 19 19 18 19 19 20 21 21 22 21 22 22 21 20 20 20 19 18 16 14 12 11 11 10 10 10 10 10 9 9 9 9 9 9 9 10 9 9 9 9 9 9 9 9 9 9
19 20 20 20 21 21 22 23 23 21 17 15 17 19 19 19 19 20 21 22 21 21 21 21 20 21 21 21 22 21 20 20 21 20 18 15 13 11 10 10 10 10 9 9 9 9 9 9 8 8 8 9 9 8 8 8 8 8 9 9 8 8 8
20 19 19 19 20 21 21 22 22 21 19 18 16 15 17 18 18 19 22 25 25 25 23 22 21 20 20 20 20 20 20 20 20 19 17 14 12 11 11 11 10 9 9 9 8 8 8 8 8 8 8 8 8 8 7 7 7 8 8 8 8 8 8
18 17 17 18 19 20 21 21 21 20 20 20 19 18 17 18 18 19 22 24 25 24 24 23 22 20 18 18 19 19 20 20 19 17 15 14 12 11 11 11 10 9 9 8 8 7 7 7 7 7 6 7 7 7 6 6 6 7 7 7 8 8 8
17 16 16 17 18 18 19 19 20 20 19 20 22 22 21 21 22 22 23 24 25 25 25 24 23 20 19 19 20 20 20 19 17 16 15 13 12 11 11 11 9 8 8 8 7 7 7 6 6 6 6 6 6 5 5 5 5 6 6 7 7 8 8
Wind_Direction
290 292 293 295 296 298 299 299 300 302 302 302 302 302 302 299 294 290 287 283 280 280 280 277 274 274 275 273 271 269 268 267 266 267 267 267 270 273 277 284 289 292 294 294 295 298 301 302 304 302 296 294 295 296 299 301 302 303 304 303 301 300 299
287 290 292 294 296 297 298 298 299 300 302 302 302 303 304 303 300 296 291 287 282 280 280 277 273 272 273 272 269 266 265 265 265 266 267 268 271 275 280 285 288 291 293 294 295 297 298 300 302 299 292 289 292 297 299 300 303 305 305 306 304 301 300
286 288 290 292 293 294 295 296 297 299 300 300 301 304 306 305 302 299 295 291 287 283 281 277 274 271 272 272 272 271 269 268 268 269 270 271 273 277 281 284 286 289 292 293 294 295 297 301 301 293 287 288 291 296 297 299 303 306 307 306 305 302 300
286 287 288 289 290 291 293 294 295 297 298 299 301 305 306 303 299 296 293 290 288 286 283 278 274 272 273 273 273 273 274 274 274 275 276 278 279 281 283 284 285 287 289 291 292 293 297 298 292 284 284 288 292 294 295 299 303 305 307 306 305 304 302
284 285 285 286 287 288 290 292 294 296 297 297 300 304 303 299 295 292 289 286 285 283 281 278 275 271 271 272 273 274 275 275 276 277 278 279 280 282 283 285 286 286 287 288 289 292 295 294 289 288 289 290 293 295 296 300 303 305 307 308 306 305 303
282 282 283 284 285 286 287 290 292 293 294 296 299 301 299 295 292 290 287 284 284 282 280 278 275 272 269 270 271 273 274 275 276 276 277 278 280 281 284 285 285 286 286 284 284 288 293 294 294 293 291 290 292 296 299 303 305 305 306 308 307 305 304
280 280 281 283 283 284 285 287 290 291 293 295 297 298 296 292 291 289 286 284 283 283 281 279 276 274 272 271 272 273 274 275 276 276 277 278 280 282 282 283 283 284 283 280 281 285 289 291 291 289 288 290 292 294 298 303 305 305 306 308 309 309 308
280 280 281 282 282 282 284 287 290 291 292 294 296 295 292 289 288 287 285 284 284 286 287 285 282 278 276 276 275 274 274 275 277 280 281 281 283 283 283 284 285 285 282 280 282 285 287 288 288 286 285 287 290 293 297 301 304 306 308 310 311 312 312
281 281 281 282 282 282 285 288 290 291 292 294 295 294 291 290 291 292 292 291 292 292 291 289 287 284 282 280 279 278 279 281 281 281 282 284 287 288 288 289 290 289 285 281 280 283 287 289 287 284 285 287 292 297 300 303 305 306 308 311 310 310 310
282 283 282 282 282 283 285 287 289 290 291 292 294 293 293 294 294 294 294 293 289 286 285 285 286 288 288 286 284 282 283 285 283 275 271 275 281 283 283 282 284 285 280 274 275 282 286 285 283 283 287 291 295 299 300 303 304 305 308 310 309 308 309
282 282 282 282 283 285 286 287 288 289 289 290 290 289 288 288 288 289 290 288 288 290 293 295 294 295 295 293 291 287 282 279 278 273 270 272 275 275 273 272 273 275 273 270 275 283 286 285 285 286 289 293 296 299 299 301 302 304 307 309 309 308 307
281 282 283 284 285 286 287 287 287 287 287 287 285 281 282 284 285 287 287 288 291 294 293 291 290 290 289 288 288 288 284 277 272 272 271 270 270 269 267 266 265 267 273 276 278 282 285 286 286 287 289 293 296 296 297 298 299 301 304 304 304 304 304
282 283 285 286 286 286 285 285 285 285 286 285 282 280 282 285 285 285 285 285 285 283 282 282 284 285 286 287 285 282 276 271 270 271 269 268 268 268 268 266 263 264 273 280 282 283 284 285 284 284 287 291 293 293 293 294 295 298 300 299 299 301 301
283 285 286 287 286 285 284 284 285 286 286 285 282 280 281 282 280 279 278 276 275 276 280 283 284 287 288 288 287 281 272 269 271 272 270 269 268 267 267 268 268 268 272 277 281 283 284 284 282 283 286 288 289 289 289 291 294 299 300 300 302 302 302
285 286 287 286 285 284 284 286 287 288 288 286 281 280 281 277 273 271 270 269 273 279 283 282 282 285 288 287 285 280 273 272 275 276 276 275 273 270 268 268 269 270 272 274 277 281 283 283 282 283 287 288 286 284 287 292 297 301 303 304 304 302 302
286 286 285 284 284 284 286 287 289 288 288 284 279 277 276 272 269 270 271 272 277 281 280 281 284 285 285 283 279 275 275 278 280 282 282 282 279 274 269 265 264 267 269 271 276 279 280 281 281 283 287 288 284 283 287 293 296 298 301 302 302 302 302
285 284 283 283 283 284 286 288 289 288 286 282 278 274 273 273 273 275 277 277 277 276 278 286 292 285 278 275 272 274 281 284 286 289 291 290 288 284 276 269 266 267 268 268 270 271 273 274 276 278 280 277 277 281 286 290 291 294 298 299 300 301 302
283 282 281 283 283 285 287 289 290 290 286 281 274 268 269 271 273 276 278 276 275 279 287 294 291 278 271 272 273 283 291 291 291 295 294 293 290 283 277 273 271 271 270 268 268 268 270 272 272 273 274 271 272 278 283 286 289 292 296 297 297 298 299
282 281 282 283 283 284 287 290 292 290 287 282 272 264 267 272 275 279 278 274 274 282 289 293 287 271 264 268 275 286 292 289 294 297 293 291 287 279 277 278 277 275 273 271 272 272 271 271 270 270 271 272 273 278 281 285 289 291 294 295 294 294 295
282 282 282 281 282 285 287 290 292 289 285 281 271 263 267 272 273 275 273 266 269 280 287 292 289 271 260 263 269 278 285 285 291 294 290 289 287 278 276 277 275 274 274 274 275 274 272 272 271 271 274 276 278 281 284 286 289 291 292 293 291 290 289
281 281 281 280 281 285 289 289 289 286 281 277 268 259 264 271 271 272 270 263 266 278 287 293 291 274 262 264 267 276 285 284 279 280 281 285 287 280 273 273 275 277 279 278 277 276 274 273 273 274 277 279 281 284 287 289 292 293 292 291 289 287 285
279 278 279 280 282 286 289 287 285 282 277 271 264 256 258 268 272 271 267 263 266 275 284 290 288 273 264 266 272 278 281 275 269 273 281 286 286 285 284 285 286 286 283 280 278 277 276 276 277 277 278 281 285 288 292 293 294 293 291 289 287 285 283
277 276 278 281 283 286 287 284 280 278 272 266 260 255 252 262 273 271 265 265 268 270 276 284 286 276 268 270 275 276 272 270 271 278 285 285 285 287 288 287 286 283 279 277 277 276 277 278 278 280 282 287 291 294 294 294 293 291 290 288 286 283 281
275 276 278 282 284 285 285 283 279 274 268 262 259 256 251 258 274 270 262 263 265 260 265 276 279 275 272 272 275 276 276 278 281 283 284 284 285 286 283 279 277 275 273 273 273 274 277 279 280 284 288 292 294 295 293 292 292 291 290 287 284 281 280
274 275 277 280 283 285 285 284 280 275 267 260 257 256 249 246 265 271 265 260 259 256 259 267 269 269 273 277 280 283 283 284 286 286 287 287 286 282 277 271 269 269 269 271 272 275 278 280 284 288 292 293 293 293 292 292 292 291 289 285 281 278 277
272 273 275 278 283 286 287 285 282 278 272 262 255 256 249 231 237 260 264 260 258 259 261 265 268 272 278 282 285 286 285 285 289 293 296 294 288 282 277 271 268 268 269 272 274 277 280 284 287 290 291 291 291 291 292 293 292 289 285 280 278 277 276
270 271 274 280 285 287 287 286 284 282 279 269 257 254 249 234 230 245 256 258 261 265 267 269 272 276 279 282 284 284 286 290 295 300 302 299 292 285 279 275 272 271 272 274 277 280 283 286 288 288 288 288 290 291 292 292 290 286 282 279 279 280 281
268 270 276 283 288 288 286 286 286 286 283 272 258 250 246 239 236 244 254 258 261 265 269 270 271 272 275 280 285 289 294 298 302 306 307 302 295 289 283 279 277 275 276 277 279 281 283 284 285 286 287 288 290 291 291 289 288 288 285 285 285 286 287
267 273 280 285 285 285 285 284 286 288 279 265 256 249 243 242 247 255 263 266 264 266 271 271 269 271 277 284 289 293 299 303 305 308 308 302 293 288 286 284 282 280 279 278 279 280 281 282 284 287 288 288 287 288 290 290 291 293 292 290 289 289 289
271 278 285 287 285 285 286 285 286 288 276 256 250 247 246 253 266 271 271 270 265 265 269 272 274 277 282 285 287 291 298 302 304 306 308 305 296 288 285 284 282 281 279 277 278 279 281 283 286 287 287 287 288 290 293 295 295 295 295 293 291 289 288
277 282 284 284 283 284 286 285 285 287 280 258 248 250 256 263 268 268 269 266 261 262 269 275 277 279 281 281 282 287 294 298 301 304 307 306 300 292 286 282 279 279 278 278 279 282 283 285 286 287 287 289 291 295 299 299 297 296 295 291 290 288 286
277 277 275 274 274 274 275 277 279 282 283 273 265 265 268 269 267 263 262 261 259 263 272 276 276 277 277 275 277 283 290 294 298 302 303 302 301 295 285 280 279 278 278 280 281 283 285 286 285 286 288 290 293 298 301 299 294 291 288 287 286 286 286
272 272 272 271 270 269 268 269 271 272 270 270 272 271 269 269 265 256 249 249 253 260 267 271 274 276 273 270 273 280 287 292 298 300 298 295 296 291 282 278 280 278 278 281 282 282 283 284 285 286 287 290 292 293 292 289 285 281 281 282 283 284 285
269 270 270 270 270 270 268 268 269 268 260 253 253 254 255 260 260 250 244 247 253 257 261 266 273 276 272 268 272 279 285 292 298 297 292 289 290 286 278 276 277 277 278 280 280 281 283 284 284 285 285 287 288 286 281 279 279 279 280 282 284 285 286
267 268 269 268 267 268 268 268 268 267 259 248 239 234 238 249 254 248 244 246 250 254 259 266 274 277 272 268 272 278 284 292 297 294 287 285 285 280 274 273 274 275 277 279 279 281 282 282 281 280 279 280 280 279 278 279 281 283 285 286 287 290 291
274 272 269 267 266 267 268 267 265 264 260 251 243 237 235 241 248 252 252 253 254 257 262 267 273 276 273 270 273 278 285 291 294 289 284 283 282 276 271 270 269 270 274 277 278 279 278 275 273 270 270 272 273 272 273 280 283 284 285 288 291 296 298
Height
1473 1471 1471 1470 1469 1468 1468 1467 1466 1465 1465 1464 1463 1462 1461 1460 1459 1458 1457 1457 1456 1456 1455 1455 1455 1455 1454 1454 1453 1452 1452 1451 1450 1449 1449 1448 1447 1446 1446 1444 1443 1440 1434 1434 1436 1435 1434 1434 1433 1432 1431 1429 1427 1426 1425 1423 1422 1421 1420 1419 1417 1414 1413
1470 1469 1468 1467 1466 1465 1464 1464 1463 1462 1461 1460 1459 1458 1457 1456 1456 1455 1454 1453 1452 1452 1451 1451 1451 1451 1451 1451 1450 1449 1448 1448 1447 1446 1445 1445 1444 1443 1443 1442 1440 1438 1433 1430 1430 1432 1431 1431 1430 1429 1428 1426 1424 1423 1421 1419 1418 1417 1416 1415 1414 1411 1409
1466 1465 1465 1464 1463 1462 1461 1460 1460 1459 1458 1457 1455 1454 1453 1452 1452 1451 1450 1449 1449 1448 1448 1447 1447 1447 1447 1447 1446 1446 1445 1444 1443 1443 1441 1441 1440 1439 1439 1439 1437 1436 1433 1428 1426 1427 1427 1427 1427 1426 1424 1423 1422 1420 1419 1417 1415 1414 1413 1412 1411 1409 1406
1463 1462 1461 1460 1459 1459 1458 1457 1456 1456 1455 1453 1452 1451 1450 1449 1448 1447 1446 1446 1445 1445 1444 1443 1443 1443 1443 1443 1442 1441 1441 1441 1440 1439 1438 1437 1436 1435 1434 1435 1434 1433 1431 1427 1424 1423 1424 1424 1424 1423 1421 1420 1418 1417 1416 1415 1413 1411 1410 1409 1408 1406 1403
1460 1459 1458 1457 1456 1455 1455 1454 1453 1452 1451 1450 1449 1447 1446 1445 1444 1443 1443 1442 1441 1441 1440 1439 1439 1439 1439 1438 1437 1437 1436 1436 1435 1435 1434 1433 1432 1432 1431 1430 1430 1430 1429 1426 1423 1420 1421 1421 1420 1419 1418 1417 1416 1414 1413 1413 1411 1409 1407 1405 1404 1404 1401
1457 1456 1455 1454 1453 1452 1451 1450 1450 1449 1448 1446 1445 1444 1443 1441 1440 1439 1438 1438 1437 1436 1436 1435 1434 1434 1434 1434 1433 1432 1432 1432 1431 1430 1429 1429 1428 1427 1427 1426 1426 1426 1425 1424 1421 1419 1418 1417 1417 1416 1415 1415 1414 1412 1410 1409 1407 1406 1405 1403 1400 1399 1399
1453 1452 1451 1450 1449 1449 1448 1447 1446 1445 1444 1443 1441 1440 1439 1437 1436 1435 1434 1434 1433 1432 1432 1431 1431 1430 1430 1430 1429 1428 1427 1427 1426 1426 1425 1424 1424 1423 1423 1422 1422 1422 1421 1420 1419 1417 1416 1415 1415 1414 1413 1412 1411 1410 1409 1407 1404 1401 1401 1400 1398 1396 1395
1450 1449 1448 1447 1446 1445 1445 1444 1443 1441 1440 1439 1437 1436 1435 1433 1432 1431 1430 1430 1429 1428 1428 1427 1427 1426 1426 1425 1425 1424 1423 1422 1422 1421 1420 1420 1420 1419 1418 1418 1418 1418 1418 1417 1416 1415 1414 1413 1412 1411 1411 1410 1409 1408 1407 1405 1403 1399 1397 1396 1395 1393 1392
1446 1445 1444 1443 1442 1442 1441 1440 1439 1438 1436 1435 1434 1432 1431 1429 1428 1427 1427 1426 1425 1425 1424 1424 1423 1423 1422 1422 1421 1420 1419 1419 1419 1418 1417 1417 1417 1416 1415 1415 1415 1415 1414 1414 1413 1412 1411 1410 1409 1409 1408 1407 1406 1405 1403 1402 1401 1398 1395 1393 1391 1391 1390
1442 1441 1440 1439 1439 1438 1437 1436 1435 1434 1432 1431 1430 1429 1427 1426 1426 1425 1423 1423 1422 1421 1421 1420 1420 1419 1418 1418 1417 1417 1416 1416 1415 1415 1415 1415 1415 1414 1414 1413 1413 1412 1412 1411 1410 1409 1409 1407 1406 1406 1406 1405 1404 1403 1401 1400 1398 1396 1394 1392 1388 1386 1387
1439 1438 1437 1436 1435 1434 1433 1432 1431 1430 1429 1428 1427 1426 1425 1424 1423 1422 1421 1420 1419 1418 1417 1417 1416 1415 1415 1414 1414 1413 1413 1413 1412 1412 1412 1412 1412 1412 1411 1411 1410 1410 1409 1408 1407 1406 1406 1405 1403 1404 1403 1402 1401 1400 1399 1397 1396 1394 1392 1390 1387 1383 1383
1435 1434 1434 1432 1431 1430 1429 1428 1427 1426 1425 1425 1424 1423 1423 1422 1420 1419 1418 1417 1416 1415 1414 1414 1413 1412 1412 1411 1411 1410 1410 1410 1409 1409 1409 1409 1408 1408 1408 1408 1407 1407 1406 1405 1404 1403 1403 1402 1401 1400 1400 1400 1399 1397 1396 1395 1393 1392 1391 1389 1387 1383 1381
1431 1431 1430 1428 1427 1426 1425 1424 1424 1423 1422 1421 1420 1420 1420 1419 1418 1416 1415 1414 1413 1412 1411 1411 1410 1409 1408 1408 1408 1407 1407 1406 1406 1406 1405 1405 1405 1405 1405 1404 1404 1404 1403 1402 1400 1399 1399 1399 1399 1397 1397 1397 1396 1394 1393 1392 1391 1390 1389 1387 1385 1382 1380
1428 1427 1426 1424 1423 1421 1420 1420 1420 1419 1418 1417 1416 1416 1416 1416 1414 1413 1412 1410 1410 1409 1408 1407 1407 1406 1405 1405 1404 1404 1403 1403 1402 1402 1402 1402 1401 1401 1401 1401 1400 1400 1400 1399 1397 1396 1396 1396 1396 1395 1394 1394 1393 1391 1389 1389 1388 1388 1387 1384 1383 1380 1378
1424 1422 1421 1420 1419 1417 1416 1416 1416 1415 1414 1413 1413 1412 1413 1412 1410 1409 1407 1406 1406 1405 1405 1405 1404 1403 1402 1402 1401 1400 1400 1399 1399 1399 1398 1398 1398 1397 1397 1397 1397 1397 1397 1396 1395 1394 1393 1393 1393 1392 1391 1391 1389 1388 1387 1386 1386 1385 1384 1381 1379 1377 1376
1419 1418 1417 1416 1415 1413 1412 1412 1412 1411 1410 1409 1409 1409 1408 1407 1406 1404 1403 1402 1403 1403 1402 1402 1401 1400 1399 1399 1398 1398 1397 1397 1397 1396 1395 1394 1394 1394 1394 1394 1394 1394 1394 1394 1393 1392 1391 1391 1390 1390 1389 1388 1385 1384 1385 1384 1383 1383 1381 1379 1376 1373 1373
1415 1414 1413 1412 1411 1410 1408 1408 1408 1408 1406 1406 1405 1405 1404 1403 1402 1401 1400 1399 1400 1400 1399 1399 1399 1398 1397 1396 1396 1395 1395 1395 1395 1394 1393 1392 1391 1391 1391 1391 1391 1391 1391 1391 1391 1390 1389 1388 1388 1387 1387 1386 1383 1382 1382 1382 1381 1380 1379 1377 1374 1370 1368
1411 1410 1409 1408 1407 1406 1405 1404 1404 1404 1403 1402 1402 1401 1401 1400 1399 1397 1397 1396 1397 1396 1396 1396 1396 1395 1394 1394 1394 1394 1394 1394 1393 1392 1391 1390 1389 1388 1387 1388 1388 1389 1389 1388 1388 1387 1386 1386 1385 1385 1385 1384 1382 1380 1380 1379 1378 1377 1376 1374 1372 1369 1365
1407 1406 1405 1405 1404 1403 1402 1400 1400 1400 1399 1398 1398 1398 1397 1397 1396 1395 1394 1394 1394 1394 1394 1394 1393 1393 1392 1391 1392 1392 1392 1392 1392 1390 1389 1387 1386 1385 1385 1385 1386 1386 1385 1385 1385 1384 1383 1383 1382 1382 1381 1381 1380 1379 1378 1377 1375 1374 1373 1371 1369 1367 1364
1403 1402 1402 1401 1400 1400 1399 1397 1396 1396 1395 1394 1394 1394 1394 1394 1393 1392 1391 1391 1391 1391 1391 1391 1390 1390 1390 1390 1390 1390 1390 1390 1390 1388 1386 1385 1384 1382 1382 1383 1383 1382 1382 1382 1381 1380 1380 1380 1379 1379 1378 1377 1377 1376 1374 1373 1372 1370 1369 1367 1365 1364 1362
1399 1398 1398 1398 1397 1396 1395 1394 1393 1392 1391 1391 1391 1391 1391 1391 1390 1389 1388 1388 1388 1388 1388 1388 1387 1387 1387 1388 1388 1388 1388 1388 1387 1385 1383 1383 1382 1380 1380 1380 1380 1380 1379 1378 1378 1377 1377 1376 1376 1375 1375 1374 1373 1372 1371 1369 1367 1366 1364 1363 1361 1359 1358
1395 1394 1394 1394 1393 1393 1392 1391 1390 1388 1388 1387 1387 1387 1388 1387 1387 1386 1386 1386 1386 1386 1386 1385 1385 1385 1385 1385 1386 1386 1386 1385 1384 1382 1381 1381 1380 1378 1378 1378 1377 1377 1376 1375 1375 1374 1374 1373 1373 1372 1372 1371 1370 1368 1366 1365 1363 1361 1360 1358 1357 1356 1354
1392 1391 1390 1390 1389 1389 1389 1388 1386 1385 1385 1384 1384 1384 1384 1384 1384 1384 1384 1383 1383 1384 1384 1383 1383 1383 1383 1383 1383 1384 1383 1382 1381 1380 1380 1378 1377 1376 1375 1375 1374 1374 1373 1372 1372 1371 1371 1370 1370 1369 1368 1367 1366 1364 1362 1360 1359 1357 1356 1355 1353 1352 1351
1388 1387 1386 1386 1385 1386 1385 1384 1383 1382 1382 1381 1381 1381 1381 1381 1382 1381 1380 1380 1381 1381 1381 1381 1381 1381 1381 1381 1381 1381 1380 1379 1378 1378 1376 1375 1374 1373 1372 1371 1371 1371 1370 1369 1369 1368 1368 1367 1367 1366 1364 1363 1361 1360 1358 1356 1355 1354 1353 1352 1350 1349 1348
1384 1384 1383 1382 1382 1382 1382 1381 1380 1379 1379 1378 1378 1378 1378 1379 1379 1378 1377 1378 1378 1379 1379 1379 1379 1379 1378 1378 1378 1378 1376 1375 1375 1374 1373 1371 1371 1370 1369 1368 1368 1367 1367 1366 1366 1365 1365 1364 1363 1362 1361 1359 1357 1356 1355 1353 1352 1351 1350 1349 1348 1347 1346
1381 1380 1380 1379 1378 1378 1378 1377 1376 1376 1376 1375 1375 1375 1375 1376 1376 1375 1375 1376 1376 1376 1376 1376 1376 1376 1376 1375 1375 1374 1373 1372 1372 1371 1369 1368 1367 1366 1365 1365 1365 1364 1364 1363 1363 1362 1361 1361 1360 1358 1357 1356 1354 1353 1352 1350 1349 1348 1347 1346 1345 1345 1344
1377 1377 1376 1376 1375 1375 1374 1373 1373 1373 1373 1372 1372 1372 1372 1372 1373 1373 1372 1373 1373 1373 1374 1373 1373 1373 1373 1372 1372 1371 1371 1370 1369 1368 1367 1365 1364 1363 1362 1362 1361 1361 1361 1360 1359 1359 1358 1357 1356 1355 1354 1353 1352 1350 1349 1348 1347 1346 1345 1344 1344 1343 1342
1374 1374 1373 1373 1372 1371 1370 1370 1370 1370 1369 1369 1369 1369 1369 1369 1370 1370 1370 1370 1371 1371 1371 1371 1371 1371 1370 1370 1369 1369 1368 1368 1367 1365 1364 1363 1361 1360 1360 1359 1359 1358 1358 1357 1356 1356 1355 1354 1353 1352 1351 1350 1349 1348 1347 1346 1346 1345 1344 1343 1342 1342 1341
1370 1370 1370 1369 1369 1368 1367 1367 1367 1367 1367 1366 1366 1366 1366 1367 1367 1368 1368 1368 1369 1369 1369 1368 1368 1368 1368 1368 1367 1367 1366 1365 1364 1363 1362 1360 1359 1358 1358 1357 1356 1356 1355 1354 1354 1353 1353 1352 1351 1350 1349 1348 1347 1347 1346 1345 1344 1344 1343 1342 1341 1341 1340
1367 1367 1367 1366 1365 1365 1365 1364 1364 1364 1364 1363 1364 1364 1364 1365 1365 1366 1366 1366 1366 1366 1366 1366 1366 1366 1366 1365 1365 1364 1364 1363 1362 1361 1360 1358 1357 1356 1356 1355 1354 1353 1353 1352 1352 1351 1351 1350 1349 1348 1348 1347 1346 1345 1345 1344 1343 1343 1342 1341 1341 1340 1339
1364 1364 1364 1363 1362 1362 1361 1361 1360 1361 1361 1361 1361 1361 1362 1362 1363 1363 1363 1364 1363 1363 1363 1363 1363 1363 1363 1363 1362 1362 1362 1361 1360 1359 1358 1357 1355 1355 1354 1353 1352 1352 1351 1351 1350 1350 1349 1348 1347 1347 1346 1346 1345 1344 1344 1343 1342 1342 1341 1341 1340 1339 1339
1361 1361 1361 1361 1360 1359 1359 1358 1358 1358 1358 1359 1359 1359 1359 1360 1360 1360 1360 1360 1360 1360 1360 1360 1360 1360 1361 1360 1360 1360 1359 1359 1358 1357 1356 1355 1354 1353 1352 1351 1351 1350 1350 1349 1349 1348 1347 1347 1346 1346 1345 1345 1344 1343 1343 1342 1342 1341 1340 1340 1339 1338 1338
1358 1358 1358 1358 1357 1356 1356 1355 1355 1355 1355 1356 1356 1357 1357 1357 1357 1357 1357 1357 1357 1357 1357 1357 1358 1358 1358 1358 1357 1357 1357 1356 1355 1355 1354 1353 1352 1351 1350 1350 1349 1349 1348 1348 1347 1346 1346 1345 1345 1344 1344 1343 1343 1342 1342 1341 1341 1340 1339 1339 1338 1338 1337
1355 1355 1355 1354 1353 1353 1352 1352 1351 1351 1352 1352 1353 1354 1354 1354 1353 1353 1354 1354 1354 1354 1354 1355 1355 1355 1355 1355 1355 1355 1355 1354 1353 1352 1351 1351 1350 1350 1349 1348 1348 1347 1347 1346 1346 1345 1345 1344 1344 1343 1343 1342 1342 1342 1341 1341 1340 1340 1339 1339 1338 1338 1337
1352 1352 1351 1351 1350 1349 1349 1348 1348 1348 1348 1348 1349 1350 1351 1350 1350 1350 1350 1350 1351 1351 1352 1352 1352 1352 1352 1352 1352 1352 1352 1352 1351 1350 1349 1349 1349 1348 1347 1347 1346 1346 1345 1345 1344 1344 1343 1343 1342 1342 1342 1341 1341 1341 1341 1340 1340 1339 1339 1338 1338 1337 1337
1348 1348 1348 1347 1347 1346 1346 1345 1345 1344 1345 1345 1345 1346 1347 1347 1346 1346 1346 1347 1347 1348 1348 1349 1349 1349 1350 1350 1350 1350 1350 1349 1349 1348 1348 1347 1347 1346 1346 1345 1345 1344 1344 1343 1343 1343 1342 1342 1341 1341 1341 1341 1341 1341 1340 1340 1340 1339 1339 1338 1338 1337 1337